Miscellaneous Local Product
Issued by NWS North Platte, NE

Home | Current Version | Previous Version | Graphics & Text | Print | Product List | Glossary On
Versions: 1 2 3 4 5 6 7 8 9 10 11 12 13 14 15 16 17 18 19 20 21 22 23 24 25 26 27 28 29 30 31 32 33 34 35 36 37 38 39 40 41 42 43 44 45 46 47 48 49 50
000
AXUS43 KLBF 220010
MISLBF


WESTERN AND NORTH CENTRAL NEBRASKA HOURLY WEATHER ROUNDUP
NATIONAL WEATHER SERVICE NORTH PLATTE NE
700 PM CDT THU SEP 21 2017

NOTE: "FAIR" INDICATES FEW OR NO CLOUDS BELOW 12,000 FEET WITH NO
SIGNIFICANT WEATHER AND/OR OBSTRUCTIONS TO VISIBILITY.

NOTE: STATIONS NOT REPORTING VARIABLES SUCH AS SKY/WEATHER OR
PRESSURE ARE PROVIDED BY RAWS AND APRS NETWORKS AND ARE NOT UNDER
NATIONAL WEATHER SERVICE QUALITY CONTROL.

...OBSERVATIONS IN AND NEAR THE EASTERN PANHANDLE OF NEBRASKA...

CITY           SKY/WX    TMP DP  RH WIND       PRES   REMARKS
PINE RIDGE     CLEAR     86  41  20 SE7G18    29.63S
GORDON         FAIR      84  42  22 SE7       29.66S
CHADRON        CLEAR     87  32  14 SE10      29.61R
ALLIANCE       CLEAR     81  46  29 E8        29.65F
SIDNEY         CLEAR     85  39  19 E12       29.66F
$$

...OBSERVATIONS IN NORTHERN NEBRASKA AND FAR SOUTHERN SOUTH DAKOTA...

CITY           SKY/WX    TMP DP  RH WIND       PRES   REMARKS
WINNER         FAIR      83  64  52 E7        29.62S
VALENTINE      CLEAR     87  50  27 S13       29.63S
THEDFORD       CLEAR     87  53  30 E6        29.65F
AINSWORTH      CLEAR     83  56  39 SE8       29.65S
O`NEILL        CLEAR     87  68  52 SE12G17   29.66S HX  90
ORD            CLEAR     89  60  37 SE13      29.63S
BROKEN BOW     CLEAR     92  47  21 S14G23    29.64S
VALENTINE NWR    N/A     87  49  26 S10G18      N/A
HALSEY           N/A     90  49  24 SE6G16      N/A
BUTTE            N/A     85  64  49 SE13        N/A
CHAMBERS         N/A     85  66  52 W3          N/A
EWING            N/A     86  71  60 S6          N/A  HX  91
$$

...OBSERVATIONS IN SOUTHWEST NEBRASKA AND FAR NORTHEAST COLORADO...

CITY           SKY/WX    TMP DP  RH WIND       PRES   REMARKS
WRAY           FAIR      91  25   9 S14G21    29.63S
HOLYOKE        FAIR      91  30  11 S9        29.62
IMPERIAL       CLEAR     92  35  13 S20G31    29.61F
OGALLALA       CLEAR     94  29  10 S13G21    29.61R
NORTH PLATTE   CLEAR     91  40  16 S13       29.61S
MCCOOK         LGT RAIN  92  42  17 S20G26    29.63R
LEXINGTON      CLEAR     92  41  16 S14       29.64R
STAPLETON        N/A     91  44  19 S3G13       N/A
GOTHENBURG       N/A     95  38  13 S12         N/A  HX  90
CALLAWAY         N/A     92  50  23 S16         N/A
$$

...OBSERVATIONS IN CENTRAL LINCOLN COUNTY AREA...

CITY           SKY/WX    TMP DP  RH WIND       PRES   REMARKS
N.P. AIRPORT   CLEAR     91  40  16 S13       29.61S
N.P. DOWNTOWN    N/A     90  43  19 S3          N/A
N.P. SOUTHEAST   N/A     91  42  17 S9G17       N/A
N.P. HILLCREST   N/A     90  41  17 S12G20      N/A
$$

...SOME OBSERVATIONS FROM AROUND THE REGION...

CITY           SKY/WX    TMP DP  RH WIND       PRES   REMARKS
DENVER         MOSUNNY   87  22   9 S21G26    29.66S
LIMON          CLEAR     83  20   9 S20G26    29.74S
ASPEN          SUNNY     74  21  13 S8        29.87S
LARAMIE        SUNNY     75  12   9 SW24G30   29.80S
CASPER         MOSUNNY   66  38  35 N28       29.70R
CHEYENNE       CLEAR     80  18  10 S12       29.75F
SCOTTSBLUFF    CLEAR     83  38  20 E10       29.62F
GRAND ISLAND   CLEAR     89  67  47 SE18G25   29.67F HX  92
OMAHA          PTCLDY    89  71  55 S22G28    29.74R HX  95
SIOUX FALLS    CLEAR     84  72  67 S13       29.69S
PIERRE         CLEAR     85  54  34 SE8       29.60R
RAPID CITY     CLEAR     73  39  29 N20       29.70R
BISMARCK       CLEAR     73  48  41 NW12      29.70R
KANSAS CITY    PTCLDY    85  73  67 S16       29.84S HX  91
HILL CITY      CLEAR     96  41  15 S17G24    29.65S HX  92
WICHITA        PTCLDY    90  72  55 S24G31    29.77R HX  97
DODGE CITY     CLEAR     92  57  30 S28G40    29.73R HX  90
OKLAHOMA CITY  PTCLDY    87  69  54 S16       29.84R HX  91
DALLAS         PTCLDY    93  66  40 S13       29.84S HX  96
AMARILLO       PTCLDY    90  49  24 S15G28    29.85S
$$




USA.gov is the U.S. government's official web portal to all federal, state and local government web resources and services.